Lanai City, HI

9:02 PM HST on August 23, 2016 (GMT -1000)
Lanai City

Weather History for PHNY - August, 2013

Change the Weather History Date:

Friday, August 23, 2013

  Actual Average Record
Temperature  
Mean Temperature 76 °F -  
Max Temperature 84 °F 83 °F 87 °F (2001)
Min Temperature 68 °F 67 °F 57 °F (1954)
Cooling Degree Days 11    
Growing Degree Days 26 (Base 50)    
Moisture  
Dew Point 66 °F    
Average Humidity 71    
Maximum Humidity 96    
Minimum Humidity 47    
Precipitation  
Precipitation 0.00 in - - ()
Sea Level Pressure  
Sea Level Pressure 29.97 in    
Wind  
Wind Speed 9 mph (NE)    
Max Wind Speed 20 mph    
Max Gust Speed 24 mph    
Visibility 10 miles    
Events      
Averages and records for this station are not official NWS values.
T = Trace of Precipitation, MM = Missing Value Source: NWS Daily Summary

Daily Weather History Graph

Daily Weather History Graph

Search for Another Location

Airport or City:

Trip Planner

Search our weather history database for the weather conditions in past years. The results will help you decide how hot, cold, wet, or windy it might be!

Date:

Astronomy

Aug. 23, 2013 Rise Set
Actual Time 6:09 AM HST 6:50 PM HST
Civil Twilight 5:46 AM HST 7:13 PM HST
Nautical Twilight 5:20 AM HST 7:40 PM HST
Astronomical Twilight 4:52 AM HST 8:07 PM HST
Moon 8:51 PM HST (8/23) 8:45 AM HST (8/23)
Length of Visible Light 13h 26m
Length of Day
12h 41m
Waning Gibbous, 90% of the Moon is Illuminated
Aug 23
Waning Gibbous
Aug 27
Last Quarter
Sep 5
New
Sep 12
First Quarter
Sep 19
Full

Hourly Weather History & Observations

Time (HST) Temp. Heat Index Dew Point Humidity Pressure Visibility Wind Dir Wind Speed Gust Speed Precip Events Conditions
12:56 AM 70.9 °F - 68.9 °F 93% 29.98 in 10.0 mi NNE 4.6 mph - N/A   Mostly Cloudy
1:56 AM 70.9 °F - 68.0 °F 91% 29.97 in 10.0 mi NE 6.9 mph - N/A   Clear
2:56 AM 68.9 °F - 66.9 °F 93% 29.96 in 10.0 mi ENE 8.1 mph - N/A   Partly Cloudy
3:56 AM 70.0 °F - 68.9 °F 96% 29.96 in 10.0 mi NNE 13.8 mph - N/A   Mostly Cloudy
4:56 AM 70.9 °F - 68.0 °F 91% 29.95 in 10.0 mi NE 13.8 mph - N/A   Mostly Cloudy
5:56 AM 72.0 °F - 68.0 °F 87% 29.96 in 10.0 mi NE 13.8 mph - N/A   Scattered Clouds
6:56 AM 72.9 °F - 64.9 °F 76% 29.97 in 10.0 mi East 12.7 mph - N/A   Partly Cloudy
7:56 AM 77.9 °F - 63.9 °F 62% 29.98 in 10.0 mi ESE 6.9 mph - N/A   Clear
8:56 AM 81.0 °F 81.7 °F 61.0 °F 50% 29.99 in 10.0 mi NE 11.5 mph 16.1 mph N/A   Clear
9:56 AM 82.9 °F 83.3 °F 61.0 °F 47% 29.99 in 10.0 mi ENE 11.5 mph - N/A   Clear
10:56 AM 84.9 °F 85.9 °F 63.0 °F 48% 29.98 in 10.0 mi NNE 16.1 mph 19.6 mph N/A   Clear
11:56 AM 81.9 °F 83.5 °F 64.9 °F 56% 29.98 in 10.0 mi Variable 4.6 mph - N/A   Mostly Cloudy
12:56 PM 81.9 °F 83.5 °F 64.9 °F 56% 29.96 in 10.0 mi Variable 4.6 mph - N/A   Mostly Cloudy
1:18 PM 82.4 °F 84.6 °F 66.2 °F 58% 30.02 in 10.0 mi NE 10.4 mph - N/A   Overcast
1:56 PM 82.4 °F 83.9 °F 64.4 °F 54% 30.01 in 10.0 mi NNW 9.2 mph - N/A   Mostly Cloudy
2:26 PM 84.2 °F 86.6 °F 66.2 °F 55% 30.01 in 10.0 mi Variable 4.6 mph - N/A   Mostly Cloudy
2:47 PM 82.4 °F 83.9 °F 64.4 °F 54% 30.01 in 10.0 mi WNW 6.9 mph - N/A   Mostly Cloudy
2:56 PM 81.0 °F 82.7 °F 64.9 °F 58% 29.94 in 10.0 mi WNW 8.1 mph - N/A   Overcast
3:56 PM 79.9 °F - 66.9 °F 64% 29.93 in 10.0 mi NW 9.2 mph - N/A   Mostly Cloudy
4:38 PM 78.8 °F - 66.2 °F 65% 30.00 in 10.0 mi North 6.9 mph - N/A   Scattered Clouds
4:56 PM 79.0 °F - 66.9 °F 66% 29.92 in 10.0 mi NNE 15.0 mph - N/A   Partly Cloudy
5:56 PM 77.9 °F - 66.9 °F 69% 29.93 in 10.0 mi NNE 19.6 mph 24.2 mph N/A   Clear
6:56 PM 73.9 °F - 66.9 °F 79% 29.94 in 10.0 mi NNE 18.4 mph - N/A   Clear
7:56 PM 72.9 °F - 66.9 °F 82% 29.95 in 10.0 mi NNE 16.1 mph - N/A   Clear
8:56 PM 72.0 °F - 66.9 °F 84% 29.98 in - NE 13.8 mph - N/A   Clear
9:56 PM 72.0 °F - 66.9 °F 84% 30.00 in 10.0 mi East 6.9 mph - N/A   Clear
10:56 PM 70.9 °F - 66.9 °F 87% 30.00 in 10.0 mi ENE 6.9 mph - N/A   Scattered Clouds
11:56 PM 70.9 °F - 66.9 °F 87% 29.99 in 10.0 mi NNE 8.1 mph - N/A   Clear